EW4074 Weather Reports


Display with metric or nautical units.
time (UTC)temp
F
wind
direction
speed
MPH
gust
MPH
rain 1hr
in
rain 24hr
in
rain mn
in
humidity
%
barometer
mb
20260905004152 72 227 0.0 0.0 0.00 0.65 0.29 96 1041.3
20260905003645 72 227 0.0 0.0 0.00 0.65 0.29 96 1041.3
20260905003140 72 227 0.0 0.0 0.00 0.65 0.29 96 1041.3
20260905002636 72 227 0.0 0.0 0.00 0.65 0.29 96 1041.3
20260905002137 72 227 0.0 0.0 0.00 0.65 0.29 96 1040.9
20260905001637 73 227 0.0 0.0 0.00 0.65 0.29 96 1040.9
20260905001137 73 227 0.0 0.0 0.00 0.65 0.29 96 1040.9
20260905000636 73 227 0.0 0.0 0.00 0.65 0.29 95 1041.1
20260905000134 73 227 0.0 0.0 0.00 0.65 0.29 95 1041.1
20260904235634 73 227 0.0 0.0 0.00 0.65 0.29 95 1041.1
20260904235135 73 227 0.0 0.0 0.00 0.65 0.29 95 1041.2
20260904234635 74 227 0.0 0.0 0.00 0.65 0.29 95 1041.2
20260904234133 74 227 0.0 0.0 0.00 0.65 0.29 94 1041.2
20260904233630 74 227 0.0 1.0 0.00 0.65 0.29 94 1041.3
20260904233129 74 227 0.0 1.0 0.00 0.65 0.29 94 1041.3
20260904232629 74 223 0.0 0.0 0.00 0.65 0.29 94 1041.3
20260904232348 74 223 0.0 0.0 0.00 0.65 0.29 94 1041.3
20260904231623 75 223 0.0 0.0 0.00 0.65 0.29 93 1041.3
20260904231112 75 223 0.0 0.0 0.00 0.65 0.29 93 1041.3
20260904230830 75 230 0.0 0.0 0.00 0.65 0.29 93 1041.2
20260904230113 75 230 0.0 1.0 0.00 0.65 0.29 93 1041.2
20260904225612 76 230 0.0 2.0 0.00 0.65 0.29 92 1041.2
20260904225112 76 230 0.0 2.0 0.00 0.65 0.29 93 1041.6
20260904224613 76 246 1.0 3.0 0.00 0.65 0.29 93 1041.6
20260904224113 76 238 0.0 3.0 0.00 0.65 0.29 92 1041.6
20260904223612 76 254 0.0 1.0 0.00 0.65 0.29 92 1041.8
20260904223335 76 272 0.0 2.0 0.00 0.65 0.29 92 1041.8
20260904222612 76 243 0.0 3.0 0.00 0.65 0.29 92 1041.8
20260904222112 76 265 1.0 5.0 0.00 0.65 0.29 92 1041.8
20260904221612 76 234 1.0 5.0 0.00 0.65 0.29 92 1041.8
20260904221113 76 264 1.0 4.0 0.00 0.65 0.29 93 1041.8
20260904220612 76 265 1.0 4.0 0.00 0.65 0.29 93 1041.6
20260904220113 76 269 1.0 4.0 0.00 0.65 0.29 93 1041.6
20260904215613 76 259 0.0 3.0 0.00 0.65 0.29 94 1041.6
20260904215113 76 253 0.0 2.0 0.00 0.65 0.29 94 1041.6
20260904214612 76 276 0.0 1.0 0.00 0.65 0.29 94 1041.6
20260904214110 76 225 0.0 0.0 0.00 0.65 0.29 94 1041.6
20260904214044 76 136 0.0 1.0 0.00 0.65 0.29 93 1042.1
20260904213323 76 241 0.0 1.0 0.00 0.65 0.29 93 1042.1
20260904212553 75 252 0.0 2.0 0.00 0.65 0.29 93 1042.1
20260904212046 75 275 1.0 5.0 0.00 0.65 0.29 93 1042.1
20260904211540 75 234 1.0 5.0 0.00 0.65 0.29 93 1042.1
20260904211034 75 281 1.0 4.0 0.00 0.65 0.29 93 1042.1
20260904210745 75 288 1.0 4.0 0.00 0.65 0.29 93 1042.3
20260904210018 75 157 1.0 3.0 0.00 0.65 0.29 93 1042.3
20260904205516 75 221 1.0 3.0 0.00 0.65 0.29 93 1042.3
20260904205235 75 260 0.0 5.0 0.00 0.65 0.29 93 1042.3
20260904204504 74 243 1.0 3.0 0.00 0.65 0.29 94 1042.3
20260904203958 74 250 1.0 3.0 0.00 0.65 0.29 93 1042.3
20260904203455 74 245 1.0 3.0 0.00 0.65 0.29 93 1042.4
20260904202956 74 260 0.0 2.0 0.00 0.65 0.29 94 1042.4
20260904202454 74 232 0.0 2.0 0.01 0.65 0.29 94 1042.4
20260904201951 74 272 0.0 3.0 0.01 0.65 0.29 94 1042.2
20260904201452 74 219 1.0 4.0 0.01 0.65 0.29 94 1042.2
20260904200951 74 240 1.0 4.0 0.06 0.65 0.29 94 1042.2
20260904200449 74 261 1.0 4.0 0.21 0.65 0.29 95 1041.7
20260904195950 74 232 1.0 4.0 0.25 0.65 0.29 94 1041.7
20260904195450 74 248 0.0 3.0 0.25 0.65 0.29 94 1041.7
20260904194950 74 236 0.0 1.0 0.25 0.65 0.29 94 1041.8
20260904194710 74 147 0.0 1.0 0.25 0.65 0.29 94 1041.8
20260904193948 75 147 0.0 2.0 0.25 0.65 0.29 93 1041.8
20260904193931 75 146 1.0 5.0 0.25 0.65 0.29 92 1042.2
20260904192943 76 138 2.0 6.0 0.25 0.65 0.29 91 1042.2
20260904192443 76 223 1.0 6.0 0.24 0.64 0.28 90 1042.2
20260904191944 77 254 1.0 6.0 0.24 0.64 0.28 89 1042.3
20260904191446 79 349 3.0 17.0 0.24 0.64 0.28 86 1042.3
20260904190945 83 150 3.0 17.0 0.19 0.59 0.23 79 1042.3
20260904190438 87 209 1.0 7.0 0.01 0.41 0.07 78 1041.4
20260904185927 88 103 0.0 1.0 0.00 0.40 0.04 75 1041.4
20260904185426 89 103 0.0 2.0 0.00 0.40 0.04 74 1041.4
20260904184926 89 103 1.0 3.0 0.00 0.40 0.04 72 1041.6
20260904184426 90 122 1.0 3.0 0.00 0.40 0.04 71 1041.6
20260904183926 90 111 0.0 2.0 0.00 0.40 0.04 70 1041.6
20260904183647 91 173 1.0 5.0 0.00 0.40 0.04 72 1041.7
20260904183153 91 127 2.0 5.0 0.00 0.40 0.04 68 1041.7
20260904182428 92 302 2.0 5.0 0.00 0.40 0.04 69 1041.7
20260904181928 92 244 2.0 6.0 0.00 0.40 0.04 68 1042.3
20260904181422 91 273 2.0 6.0 0.00 0.40 0.04 69 1042.3
20260904180910 91 115 2.0 8.0 0.00 0.40 0.04 69 1042.3
20260904180409 91 270 2.0 9.0 0.00 0.40 0.04 69 1042.3
20260904175909 91 319 2.0 9.0 0.00 0.40 0.04 67 1042.3
20260904175410 91 66 1.0 8.0 0.00 0.40 0.04 72 1042.3
20260904174910 90 227 2.0 7.0 0.00 0.40 0.04 70 1042.4
20260904174409 90 237 3.0 7.0 0.00 0.40 0.04 69 1042.4
20260904173909 90 244 3.0 8.0 0.00 0.40 0.04 70 1042.4
20260904173412 90 275 2.0 8.0 0.00 0.40 0.04 69 1042.7
20260904173137 90 254 1.0 6.0 0.00 0.40 0.04 73 1042.7
20260904172406 89 192 1.0 6.0 0.00 0.40 0.04 71 1042.7
20260904171854 89 241 1.0 6.0 0.00 0.40 0.04 72 1042.9
20260904171342 89 38 2.0 6.0 0.00 0.40 0.04 71 1042.9
20260904170832 89 42 2.0 6.0 0.00 0.40 0.04 73 1043.0
20260904170543 89 59 1.0 5.0 0.00 0.40 0.04 72 1043.0
20260904165819 88 314 1.0 5.0 0.00 0.40 0.04 71 1043.0
20260904165312 88 329 2.0 4.0 0.00 0.40 0.04 70 1043.2
20260904164807 88 306 1.0 4.0 0.00 0.40 0.04 73 1043.2
20260904164300 88 321 1.0 4.0 0.00 0.40 0.04 76 1043.2
20260904163755 87 223 2.0 5.0 0.00 0.40 0.04 71 1043.4
20260904163243 87 132 2.0 5.0 0.00 0.40 0.04 75 1043.4
20260904162741 87 74 2.0 7.0 0.00 0.40 0.04 72 1043.4
20260904162236 87 248 2.0 7.0 0.00 0.40 0.04 73 1043.5
20260904161730 87 227 2.0 6.0 0.00 0.40 0.04 73 1043.5
20260904161224 86 131 2.0 7.0 0.00 0.40 0.04 73 1043.5
20260904160718 86 138 1.0 7.0 0.00 0.40 0.04 74 1043.5
20260904160433 85 254 1.0 4.0 0.00 0.40 0.04 74 1043.5
20260904155701 85 309 2.0 5.0 0.00 0.40 0.04 72 1043.5
20260904155159 85 281 2.0 7.0 0.00 0.40 0.04 76 1043.4
20260904154654 85 236 2.0 7.0 0.00 0.40 0.04 72 1043.4
20260904154148 85 269 2.0 7.0 0.00 0.40 0.04 73 1043.4
20260904153908 85 236 2.0 6.0 0.00 0.40 0.04 73 1043.5
20260904153135 85 222 2.0 5.0 0.00 0.40 0.04 76 1043.5
20260904152629 84 238 2.0 6.0 0.00 0.40 0.04 74 1043.5
20260904152346 84 236 1.0 6.0 0.00 0.40 0.04 74 1043.7
20260904151834 84 252 2.0 7.0 0.00 0.40 0.04 76 1043.7
20260904151104 84 24 3.0 7.0 0.00 0.40 0.04 77 1043.7
20260904150603 83 240 2.0 7.0 0.00 0.40 0.04 77 1043.8
20260904150058 83 253 2.0 7.0 0.00 0.40 0.04 77 1043.8
20260904145552 84 258 1.0 4.0 0.00 0.40 0.04 76 1043.8
20260904145046 83 256 2.0 7.0 0.00 0.40 0.04 78 1043.9
20260904144540 83 254 2.0 7.0 0.00 0.41 0.04 77 1043.9
20260904144034 83 277 1.0 4.0 0.00 0.44 0.04 77 1043.9
20260904143527 83 76 1.0 4.0 0.00 0.45 0.04 79 1043.8
20260904143021 82 236 2.0 4.0 0.00 0.47 0.04 80 1043.8
20260904142511 82 231 2.0 9.0 0.00 0.47 0.04 79 1043.8
20260904142009 82 227 1.0 9.0 0.00 0.47 0.04 79 1044.0
20260904141947 82 310 1.0 4.0 0.00 0.47 0.04 80 1044.0
20260904140957 82 231 0.0 4.0 0.00 0.47 0.04 80 1044.0
20260904140451 82 290 0.0 4.0 0.00 0.47 0.04 84 1043.9
20260904135938 81 277 1.0 4.0 0.00 0.47 0.04 81 1043.9
20260904135439 80 108 1.0 4.0 0.00 0.47 0.04 82 1043.9
20260904134926 80 255 2.0 6.0 0.00 0.47 0.04 83 1043.9
20260904134427 79 236 2.0 6.0 0.00 0.47 0.04 83 1043.9
20260904133922 79 239 1.0 5.0 0.00 0.47 0.04 83 1043.9
20260904133632 79 192 1.0 5.0 0.00 0.47 0.04 86 1044.0
20260904132909 78 256 1.0 4.0 0.00 0.47 0.04 84 1044.0
20260904132618 78 219 1.0 3.0 0.00 0.47 0.04 86 1044.0
20260904131858 78 237 0.0 3.0 0.00 0.47 0.04 86 1043.9
20260904131354 77 243 1.0 2.0 0.00 0.47 0.04 90 1043.9
20260904131113 75 243 1.0 3.0 0.00 0.47 0.04 92 1043.9
20260904130340 74 260 1.0 3.0 0.00 0.47 0.04 92 1043.9
20260904125833 74 260 0.0 1.0 0.00 0.47 0.04 95 1043.9
20260904125327 73 261 1.0 3.0 0.00 0.47 0.04 95 1043.9
20260904124818 73 269 1.0 3.0 0.00 0.47 0.04 97 1043.9
20260904124316 73 213 0.0 1.0 0.00 0.47 0.04 99 1043.9
20260904123803 72 213 0.0 0.0 0.00 0.47 0.04 99 1044.0
20260904123304 71 213 0.0 3.0 0.00 0.47 0.04 99 1044.0
20260904122758 71 213 0.0 3.0 0.00 0.47 0.04 98 1044.0
20260904122252 71 24 0.0 0.0 0.00 0.47 0.04 99 1043.9
20260904121745 71 24 0.0 1.0 0.00 0.47 0.04 99 1043.9
20260904121233 70 24 0.0 2.0 0.00 0.47 0.04 99 1043.9
20260904120733 70 252 0.0 2.0 0.00 0.47 0.04 99 1043.5
20260904120220 70 236 0.0 2.0 0.00 0.47 0.04 99 1043.5
20260904115721 70 103 0.0 0.0 0.00 0.47 0.04 99 1043.5
20260904115705 70 100 0.0 0.0 0.00 0.47 0.04 99 1043.3
20260904114709 69 101 0.0 0.0 0.00 0.47 0.04 99 1043.3
20260904114203 69 100 0.0 0.0 0.00 0.47 0.04 99 1043.3
20260904113650 69 101 0.0 0.0 0.00 0.47 0.04 99 1043.4
20260904113151 69 10 0.0 0.0 0.00 0.47 0.04 99 1043.4
20260904113125 69 10 0.0 0.0 0.00 0.47 0.04 99 1043.4
20260904112140 68 295 0.0 0.0 0.00 0.47 0.04 99 1043.6
20260904111634 68 295 0.0 0.0 0.00 0.47 0.04 99 1043.6
20260904111128 67 295 0.0 0.0 0.00 0.47 0.04 99 1043.6
20260904110621 67 295 0.0 0.0 0.00 0.47 0.04 99 1043.6
20260904110109 67 295 0.0 0.0 0.00 0.47 0.04 99 1043.6
20260904105609 67 295 0.0 0.0 0.00 0.47 0.04 99 1043.6
20260904105103 67 242 0.0 0.0 0.00 0.47 0.04 99 1043.5
20260904104823 67 242 0.0 0.0 0.00 0.47 0.04 99 1043.5
20260904104057 67 242 0.0 0.0 0.00 0.47 0.04 99 1043.5
20260904103557 67 242 0.0 0.0 0.00 0.47 0.04 99 1043.4
20260904103315 67 242 0.0 0.0 0.00 0.47 0.04 99 1043.4
20260904102554 67 269 0.0 0.0 0.00 0.47 0.04 99 1043.4
20260904102055 68 269 0.0 0.0 0.00 0.47 0.04 99 1043.2
20260904101555 68 269 0.0 0.0 0.00 0.47 0.04 99 1043.2
20260904101054 68 269 0.0 0.0 0.00 0.47 0.04 99 1043.2
20260904100821 68 269 0.0 0.0 0.00 0.47 0.04 99 1043.2
20260904100058 68 269 0.0 0.0 0.00 0.47 0.04 99 1043.2
20260904095558 68 286 0.0 0.0 0.00 0.47 0.04 99 1043.2
20260904095052 68 289 0.0 0.0 0.00 0.47 0.04 99 1043.4
20260904094539 68 289 0.0 0.0 0.00 0.47 0.04 99 1043.4
20260904094038 68 289 0.0 0.0 0.00 0.47 0.04 99 1043.4
20260904093538 68 290 0.0 0.0 0.00 0.47 0.04 99 1042.9
20260904093038 68 289 0.0 0.0 0.00 0.47 0.04 99 1042.9
20260904092539 68 289 0.0 0.0 0.00 0.47 0.04 99 1042.9
20260904092038 68 119 0.0 0.0 0.00 0.47 0.04 99 1043.2
20260904091538 68 148 0.0 1.0 0.00 0.47 0.04 99 1043.2
20260904091040 68 158 0.0 3.0 0.00 0.47 0.04 99 1043.2
20260904090541 68 128 0.0 3.0 0.00 0.47 0.04 99 1042.4
20260904090036 68 158 0.0 2.0 0.00 0.47 0.04 99 1042.4
20260904085523 68 159 0.0 0.0 0.00 0.47 0.04 98 1042.4
20260904085011 68 159 0.0 0.0 0.00 0.47 0.04 98 1042.3
20260904084500 68 159 0.0 0.0 0.01 0.47 0.04 99 1042.3
20260904083947 68 159 0.0 0.0 0.01 0.47 0.04 99 1042.3
20260904083435 68 159 0.0 0.0 0.01 0.47 0.04 99 1041.9
20260904082925 67 159 0.0 2.0 0.01 0.47 0.04 99 1041.9
20260904082420 67 156 0.0 2.0 0.01 0.47 0.04 99 1041.9
20260904082125 67 165 0.0 2.0 0.01 0.47 0.04 99 1042.3
20260904081408 67 208 0.0 0.0 0.01 0.47 0.04 98 1042.3
20260904081125 67 208 0.0 0.0 0.01 0.47 0.04 98 1042.3
20260904080356 67 208 0.0 0.0 0.01 0.47 0.04 98 1042.4
20260904075844 67 208 0.0 0.0 0.01 0.47 0.04 98 1042.4
20260904075605 67 208 0.0 0.0 0.01 0.47 0.04 98 1042.3
20260904074837 67 208 0.0 0.0 0.00 0.46 0.03 98 1042.3
20260904074327 67 208 0.0 0.0 0.00 0.46 0.03 98 1042.3
20260904073814 67 208 0.0 0.0 0.00 0.46 0.03 98 1042.3
20260904073541 67 208 0.0 1.0 0.00 0.46 0.03 98 1042.3
20260904073029 67 208 0.0 1.0 0.00 0.46 0.03 98 1042.3
20260904072306 67 309 0.0 0.0 0.00 0.46 0.03 98 1042.3
20260904071757 67 309 0.0 1.0 0.00 0.46 0.03 98 1042.3
20260904071243 67 309 0.0 1.0 0.00 0.46 0.03 98 1042.3
20260904070745 67 199 0.0 0.0 0.00 0.46 0.03 97 1042.3
20260904070239 67 199 0.0 0.0 0.00 0.46 0.03 97 1042.3
20260904070219 67 199 0.0 0.0 0.00 0.46 0.03 97 1042.3
20260904065226 67 200 0.0 0.0 0.00 0.46 0.03 97 1042.0
20260904064720 67 200 0.0 0.0 0.00 0.46 0.03 97 1042.0
20260904064214 67 200 0.0 0.0 0.00 0.46 0.03 97 1042.0
20260904063925 68 200 0.0 0.0 0.00 0.46 0.03 97 1041.8
20260904063203 68 200 0.0 0.0 0.00 0.46 0.03 97 1041.8
20260904062657 68 199 0.0 0.0 0.00 0.46 0.03 97 1041.8
20260904062421 68 200 0.0 3.0 0.00 0.46 0.03 97 1042.2
20260904061645 68 236 1.0 3.0 0.00 0.46 0.03 97 1042.2
20260904061139 68 191 1.0 2.0 0.00 0.46 0.03 97 1042.2
20260904060900 68 252 1.0 5.0 0.00 0.46 0.03 97 1042.2
20260904060126 68 246 1.0 5.0 0.00 0.46 0.03 97 1042.2
20260904055621 68 250 1.0 3.0 0.00 0.46 0.03 97 1042.2
20260904055107 68 211 0.0 3.0 0.00 0.46 0.03 97 1042.4
20260904054609 69 207 0.0 2.0 0.00 0.46 0.03 97 1042.4
20260904054545 69 246 0.0 2.0 0.00 0.46 0.03 97 1042.4
20260904053556 69 228 0.0 0.0 0.00 0.46 0.03 97 1042.9
20260904053050 69 228 0.0 0.0 0.00 0.46 0.03 97 1042.9
20260904052540 69 228 0.0 0.0 0.00 0.46 0.03 97 1042.9
20260904052038 69 228 0.0 0.0 0.00 0.46 0.03 97 1043.1
20260904051533 69 228 0.0 0.0 0.01 0.46 0.03 97 1043.1
20260904051026 69 228 0.0 0.0 0.02 0.46 0.03 97 1043.1
20260904050522 69 228 0.0 0.0 0.03 0.46 0.03 97 1043.6
20260904050015 69 195 0.0 0.0 0.03 0.46 0.03 97 1043.6
20260904045510 69 194 0.0 0.0 0.04 0.46 0.03 96 1043.6
20260904044956 69 197 0.0 1.0 0.05 0.46 0.03 96 1043.9
20260904044720 69 197 0.0 1.0 0.06 0.46 0.03 96 1043.9
20260904043950 69 130 0.0 2.0 0.06 0.46 0.03 96 1043.9
20260904043446 69 134 0.0 2.0 0.06 0.46 0.03 96 1044.7
20260904042938 69 197 0.0 2.0 0.06 0.46 0.03 96 1044.7
20260904042433 69 217 0.0 2.0 0.06 0.46 0.03 96 1044.7
20260904041926 69 180 0.0 1.0 0.07 0.46 0.03 96 1045.4
20260904041413 70 245 0.0 1.0 0.06 0.45 0.02 96 1045.4
20260904040914 70 245 0.0 2.0 0.08 0.44 0.01 96 1045.4
20260904040631 70 243 1.0 3.0 0.08 0.43 0.00 95 1044.7
20260904035902 70 124 1.0 3.0 0.08 0.43 0.43 95 1044.7
20260904035613 70 181 1.0 4.0 0.07 0.42 0.42 95 1044.6
20260904034850 70 197 1.0 4.0 0.07 0.41 0.41 95 1044.6
20260904034344 70 166 0.0 3.0 0.08 0.40 0.40 95 1044.6
20260904033831 70 127 0.0 0.0 0.09 0.40 0.40 95 1044.7
20260904033332 70 229 0.0 0.0 0.14 0.40 0.40 95 1044.7
20260904032826 70 94 1.0 2.0 0.19 0.40 0.40 94 1044.7
20260904032322 70 306 2.0 8.0 0.31 0.40 0.40 94 1046.3
20260904031815 70 310 2.0 8.0 0.32 0.39 0.39 94 1046.3
20260904031746 71 219 3.0 12.0 0.31 0.38 0.38 93 1046.3
20260904030803 71 238 2.0 12.0 0.29 0.36 0.36 92 1045.6
20260904030252 71 227 1.0 5.0 0.28 0.35 0.35 92 1045.6
20260904025751 71 253 1.0 6.0 0.28 0.35 0.35 91 1045.6
20260904025507 71 134 2.0 7.0 0.28 0.35 0.35 90 1045.7
20260904024740 72 101 1.0 7.0 0.25 0.32 0.32 89 1045.7
20260904024233 73 145 2.0 6.0 0.24 0.31 0.31 88 1045.7
20260904023728 74 219 3.0 9.0 0.23 0.30 0.31 86 1044.8
20260904023220 75 66 3.0 17.0 0.17 0.24 0.25 84 1044.8
20260904022931 77 253 2.0 17.0 0.12 0.19 0.19 82 1044.8
20260904022209 79 246 1.0 3.0 0.00 0.07 0.07 82 1044.5
20260904021702 79 329 1.0 5.0 0.00 0.07 0.07 81 1044.5
20260904021157 80 107 1.0 5.0 0.00 0.07 0.07 82 1044.5
20260904020907 80 125 0.0 4.0 0.00 0.07 0.07 81 1044.0
20260904020145 80 260 1.0 4.0 0.00 0.07 0.07 83 1044.0
20260904015638 80 43 1.0 5.0 0.00 0.07 0.07 84 1044.0
20260904015128 80 67 2.0 6.0 0.00 0.07 0.07 86 1043.4
20260904014626 80 66 1.0 6.0 0.00 0.07 0.07 88 1043.4
20260904014120 79 327 0.0 3.0 0.00 0.07 0.07 90 1043.4
20260904013614 79 217 0.0 0.0 0.00 0.07 0.07 90 1043.0
20260904013105 79 217 0.0 0.0 0.00 0.07 0.07 90 1043.0
20260904012554 79 217 0.0 0.0 0.00 0.07 0.07 90 1043.0
20260904012045 79 217 0.0 0.0 0.00 0.07 0.07 90 1042.8
20260904011543 79 217 0.0 0.0 0.00 0.07 0.07 90 1042.8
20260904011527 79 217 0.0 0.0 0.00 0.07 0.07 90 1042.8
20260904010544 79 217 0.0 0.0 0.00 0.07 0.07 90 1042.9
20260904010043 79 217 0.0 0.0 0.00 0.07 0.07 90 1042.9
20260904005543 79 217 0.0 0.0 0.00 0.07 0.07 90 1042.9
20260904005044 79 217 0.0 0.0 0.00 0.07 0.07 90 1042.9